Flag for Cayman Islands Weather past 2 weeks in George Town, Cayman Islands

Now
84 °F

Passing clouds.


Feels Like: 96 °F
Forecast: 83 / 86 °F
Wind: 7 mph from East

Location: Owen Roberts Airportgrand Cayman

Current Time: Jul 4, 2015 at 7:55:21 AM

Latest Report: Jul 4, 2015 at 7:00 AM


Visibility: N/A

Pressure: 29.98 "Hg

Humidity: 84%

Dew point: 79 °F

Location of George TownLocation

Historic Weather in George Town — Graph

°F

George Town temperature yesterday

Maximum temperature yesterday: 90 °F (at 1:00 PM)
Minimum temperature yesterday: 82 °F (at 6:00 AM)
Average temperature yesterday: 87 °F

Past Weeks' High & Low Weather Summary

 TemperatureHumidityPressure
High90 °F (Jun 24, 2:00 PM)94% (Jun 19, 7:00 AM)31.54 "Hg (Jun 19, 7:00 AM)
Low81 °F (Jun 21, 6:00 AM)59% (Jul 3, 2:00 PM)29.95 "Hg (Jun 19, 4:00 PM)
Average86 °F80%30.03 "Hg
* Reported Jun 19 7:00 AM — Jul 4 7:00 AM, George Town, Weather by CustomWeather, © 2015

Note: Actual official high and low records may vary slightly from our data, if they occured in-between our weather recording intervals... More about our weather records

Advertising

George Town weather history for previous 24 hours

 ConditionsComfort  
Time TempWeatherWind HumidityBarometerVisibility
7:00 AM
Sat, Jul 4
84 °FPassing clouds.7 mph84%29.98 "HgN/A
6:00 AM84 °FScattered clouds.6 mph84%29.98 "HgN/A
10:00 PM
Fri, Jul 3
84 °FPassing clouds.8 mph84%30.01 "HgN/A
9:00 PM84 °FPassing clouds.8 mph84%30.01 "HgN/A
8:00 PM84 °FPassing clouds.9 mph84%29.98 "HgN/A
7:00 PM86 °FPassing clouds.10 mph75%29.98 "HgN/A
6:00 PM88 °FPassing clouds.12 mph70%29.95 "HgN/A
5:00 PM90 °FPassing clouds.12 mph71%29.95 "HgN/A
4:00 PM90 °FPassing clouds.13 mph67%29.95 "HgN/A
3:00 PM90 °FPassing clouds.13 mph67%29.95 "HgN/A
2:00 PM90 °FScattered clouds.15 mph59%29.98 "HgN/A
1:00 PM90 °FPassing clouds.12 mph71%29.98 "HgN/A
12:00 PM88 °FScattered clouds.12 mph75%29.98 "HgN/A
11:00 AM88 °FScattered clouds.12 mph79%30.01 "HgN/A
10:00 AM88 °FScattered clouds.12 mph70%30.01 "HgN/A
9:00 AM88 °FScattered clouds.14 mph75%30.01 "HgN/A
8:00 AM84 °FScattered clouds.12 mph84%30.01 "HgN/A
7:00 AM82 °FPassing clouds.8 mph89%29.98 "HgN/A
Weather by CustomWeather, © 2015

See weather overviewHow to use our weather pages